Weather History for KEDE - October, 2013

Change the Weather History Date:

Tuesday, October 8, 2013

  Actual Average Record
Temperature  
Mean Temperature 64 °F -  
Max Temperature 68 °F 73 °F - (-1)
Min Temperature 59 °F 53 °F - (-1)
Degree Days  
Heating Degree Days 2    
Growing Degree Days 14 (Base 50)    
Moisture  
Dew Point 58 °F    
Average Humidity 88    
Maximum Humidity 99    
Minimum Humidity 71    
Precipitation  
Precipitation 0.18 in - - ()
Sea Level Pressure  
Sea Level Pressure 30.10 in    
Wind  
Wind Speed 10 mph (NNE)    
Max Wind Speed 17 mph    
Max Gust Speed 23 mph    
Visibility 10 miles    
Events Rain    
Averages and records for this station are not official NWS values.
T = Trace of Precipitation, MM = Missing Value Source: NWS Daily Summary

Daily Weather History Graph

Daily Weather History Graph

Search for Another Location

Airport or City:

Trip Planner

Search our weather history database for the weather conditions in past years. The results will help you decide how hot, cold, wet, or windy it might be!

Date:

Astronomy

Oct. 08, 2013 Rise Set
Actual Time 7:07 AM EDT 6:39 PM EDT
Civil Twilight 6:41 AM EDT 7:05 PM EDT
Nautical Twilight 6:11 AM EDT 7:34 PM EDT
Astronomical Twilight 5:42 AM EDT 8:04 PM EDT
Moon 10:52 AM EDT (10/8) 9:21 PM EDT (10/8)
Length of Visible Light 12h 23m
Length of Day
11h 32m
Waxing Crescent, 16% of the Moon is Illuminated
Oct 8
Waxing Crescent
Oct 11
First Quarter
Oct 18
Full
Oct 26
Last Quarter
Nov 3
New

Hourly Weather History & Observations

Time (EDT) Temp. Dew Point Humidity Pressure Visibility Wind Dir Wind Speed Gust Speed Precip Events Conditions
12:15 AM 68.9 °F 68.0 °F 97% 29.96 in 5.0 mi NNE 12.7 mph 18.4 mph 0.05 in Rain Light Rain
12:35 AM 68.9 °F 68.2 °F 98% 29.97 in 10.0 mi North 5.8 mph - 0.05 in   Light Drizzle
12:55 AM 68.5 °F 68.2 °F 99% 29.97 in 10.0 mi North 9.2 mph - 0.05 in   Light Drizzle
1:15 AM 68.4 °F 67.8 °F 98% 29.98 in 10.0 mi North 17.3 mph 21.9 mph N/A   Unknown
1:35 AM 65.5 °F 64.9 °F 98% 29.99 in 10.0 mi NNE 15.0 mph 19.6 mph N/A   Unknown
1:55 AM 64.8 °F 64.4 °F 99% 30.00 in 10.0 mi NNE 11.5 mph 18.4 mph 0.01 in   Unknown
2:15 AM 64.6 °F 64.0 °F 98% 30.01 in 10.0 mi NNE 10.4 mph 18.4 mph N/A   Unknown
2:35 AM 64.0 °F 63.5 °F 98% 30.01 in 4.0 mi NNE 10.4 mph - 0.05 in Rain Rain
2:55 AM 63.1 °F 62.8 °F 99% 30.01 in 7.0 mi North 6.9 mph - 0.05 in Rain Rain
3:15 AM 62.6 °F 62.1 °F 98% 30.02 in 10.0 mi NNE 8.1 mph - N/A   Unknown
3:35 AM 62.2 °F 61.7 °F 98% 30.03 in 10.0 mi NE 10.4 mph 19.6 mph N/A   Unknown
3:55 AM 62.1 °F 61.2 °F 97% 30.02 in 10.0 mi NE 12.7 mph 20.7 mph N/A   Unknown
4:15 AM 61.7 °F 60.8 °F 97% 30.03 in 10.0 mi NE 12.7 mph 18.4 mph N/A   Unknown
4:35 AM 61.3 °F 60.3 °F 96% 30.04 in 10.0 mi NE 11.5 mph 20.7 mph N/A   Unknown
4:55 AM 60.1 °F 58.1 °F 93% 30.05 in 10.0 mi NNE 12.7 mph 23.0 mph N/A   Light Drizzle
5:15 AM 60.1 °F 57.2 °F 90% 30.05 in 10.0 mi NE 13.8 mph 19.6 mph N/A   Light Drizzle
5:35 AM 60.3 °F 56.5 °F 87% 30.05 in 10.0 mi NE 10.4 mph - N/A   Unknown
5:55 AM 60.8 °F 56.1 °F 85% 30.05 in 10.0 mi NNE 9.2 mph 17.3 mph N/A   Unknown
6:15 AM 60.8 °F 55.9 °F 84% 30.07 in 10.0 mi NE 9.2 mph - N/A   Unknown
6:35 AM 60.8 °F 56.3 °F 85% 30.06 in 10.0 mi NNE 8.1 mph - N/A   Unknown
6:55 AM 60.8 °F 55.6 °F 83% 30.07 in 10.0 mi NNE 11.5 mph 17.3 mph N/A   Unknown
7:15 AM 61.3 °F 53.4 °F 75% 30.08 in 10.0 mi NNE 10.4 mph 19.6 mph N/A   Unknown
7:35 AM 61.3 °F 52.9 °F 74% 30.09 in 10.0 mi NNE 10.4 mph 18.4 mph N/A   Unknown
7:55 AM 61.2 °F 53.6 °F 76% 30.11 in 10.0 mi NNE 12.7 mph 17.3 mph N/A   Unknown
8:15 AM 61.2 °F 54.5 °F 79% 30.12 in 10.0 mi NNE 10.4 mph 19.6 mph N/A   Unknown
8:35 AM 61.3 °F 54.0 °F 77% 30.12 in 10.0 mi NNE 10.4 mph 20.7 mph N/A   Unknown
8:55 AM 61.7 °F 54.0 °F 76% 30.13 in 10.0 mi NNE 9.2 mph - N/A   Unknown
9:15 AM 61.0 °F 54.1 °F 78% 30.13 in 10.0 mi NNE 10.4 mph - N/A   Light Drizzle
9:35 AM 61.7 °F 53.6 °F 75% 30.13 in 10.0 mi NNE 11.5 mph - N/A   Unknown
9:55 AM 61.9 °F 53.6 °F 74% 30.13 in 10.0 mi NNE 11.5 mph 18.4 mph N/A   Unknown
10:15 AM 62.6 °F 53.1 °F 71% 30.13 in 10.0 mi NNE 10.4 mph 17.3 mph N/A   Unknown
10:35 AM 62.2 °F 53.4 °F 73% 30.14 in 10.0 mi NNE 9.2 mph 16.1 mph N/A   Light Drizzle
10:55 AM 61.0 °F 54.3 °F 79% 30.14 in 10.0 mi NNE 8.1 mph 16.1 mph N/A Rain Rain
11:15 AM 59.9 °F 54.9 °F 83% 30.14 in 10.0 mi NNE 9.2 mph - 0.01 in Rain Light Rain
11:35 AM 60.1 °F 55.4 °F 85% 30.15 in 10.0 mi NNE 8.1 mph - 0.01 in   Light Drizzle
11:55 AM 60.3 °F 55.4 °F 84% 30.15 in 10.0 mi NNE 9.2 mph - 0.01 in   Unknown
12:15 PM 60.6 °F 55.4 °F 83% 30.15 in 10.0 mi NNE 8.1 mph 17.3 mph N/A   Light Drizzle
12:35 PM 60.8 °F 55.6 °F 83% 30.14 in 10.0 mi NNE 6.9 mph - N/A   Drizzle
12:55 PM 60.3 °F 56.7 °F 88% 30.13 in 10.0 mi NNE 6.9 mph - 0.01 in Rain Rain
1:15 PM 60.8 °F 57.9 °F 90% 30.14 in 10.0 mi NNE 6.9 mph - N/A   Light Drizzle
1:35 PM 60.8 °F 58.3 °F 91% 30.14 in 10.0 mi NNE 8.1 mph - N/A Rain Light Rain
1:55 PM 61.0 °F 58.3 °F 91% 30.14 in 10.0 mi NE 10.4 mph 17.3 mph 0.01 in   Drizzle
2:15 PM 61.0 °F 58.1 °F 90% 30.13 in 10.0 mi NE 10.4 mph - N/A Rain Light Rain
2:35 PM 61.2 °F 58.3 °F 90% 30.13 in 10.0 mi NE 8.1 mph - N/A   Light Drizzle
2:55 PM 61.5 °F 58.5 °F 90% 30.13 in 10.0 mi NNE 6.9 mph - N/A   Unknown
3:15 PM 62.1 °F 59.0 °F 90% 30.13 in 10.0 mi North 8.1 mph - N/A   Unknown
3:35 PM 62.6 °F 58.6 °F 87% 30.13 in 10.0 mi NNE 8.1 mph - N/A Rain Light Rain
3:55 PM 62.8 °F 58.3 °F 85% 30.13 in 10.0 mi NNE 8.1 mph - N/A   Unknown
4:15 PM 63.1 °F 57.4 °F 81% 30.13 in 10.0 mi NE 10.4 mph - N/A   Unknown
4:35 PM 63.5 °F 56.5 °F 78% 30.13 in 10.0 mi NNE 9.2 mph 17.3 mph N/A   Unknown
4:55 PM 63.1 °F 56.5 °F 79% 30.13 in 10.0 mi NNE 9.2 mph - N/A   Unknown
5:15 PM 63.1 °F 56.7 °F 79% 30.12 in 10.0 mi NNE 9.2 mph - N/A   Unknown
5:35 PM 63.1 °F 56.8 °F 80% 30.12 in 10.0 mi NNE 8.1 mph - N/A   Unknown
5:55 PM 63.1 °F 56.8 °F 80% 30.13 in 10.0 mi NNE 6.9 mph - N/A   Unknown
6:15 PM 62.8 °F 57.2 °F 82% 30.13 in 10.0 mi NNE 8.1 mph - N/A   Light Drizzle
6:35 PM 62.6 °F 57.6 °F 84% 30.13 in 10.0 mi NNE 8.1 mph - N/A   Drizzle
6:55 PM 62.2 °F 57.7 °F 85% 30.13 in 10.0 mi North 8.1 mph - N/A   Light Drizzle
7:15 PM 61.7 °F 58.3 °F 89% 30.13 in 10.0 mi North 8.1 mph - N/A   Drizzle
7:35 PM 61.7 °F 58.6 °F 90% 30.13 in 10.0 mi North 6.9 mph - N/A   Drizzle
7:55 PM 61.7 °F 59.0 °F 91% 30.14 in 10.0 mi North 9.2 mph - 0.01 in   Light Drizzle
8:15 PM 61.7 °F 59.2 °F 91% 30.13 in 10.0 mi North 9.2 mph - N/A   Drizzle
8:35 PM 61.3 °F 59.4 °F 93% 30.13 in 10.0 mi North 9.2 mph - N/A   Light Drizzle
8:55 PM 61.2 °F 59.5 °F 94% 30.13 in 10.0 mi NNE 9.2 mph 16.1 mph N/A Rain Light Rain
9:15 PM 61.2 °F 59.9 °F 96% 30.15 in 10.0 mi NNE 5.8 mph - 0.01 in Rain Light Rain
9:35 PM 61.2 °F 60.3 °F 97% 30.15 in 10.0 mi NNE 8.1 mph - 0.02 in Rain Light Rain
9:55 PM 61.7 °F 60.8 °F 97% 30.16 in 10.0 mi NNE 9.2 mph - 0.03 in   Drizzle
10:15 PM 61.5 °F 59.9 °F 94% 30.15 in 10.0 mi NNE 9.2 mph 21.9 mph N/A   Light Drizzle
10:35 PM 61.0 °F 59.4 °F 94% 30.15 in 10.0 mi NNE 9.2 mph - N/A   Unknown
10:55 PM 60.8 °F 59.2 °F 94% 30.15 in 10.0 mi NNE 9.2 mph - N/A   Unknown
11:15 PM 60.8 °F 58.8 °F 93% 30.15 in 10.0 mi NNE 11.5 mph - N/A   Unknown
11:35 PM 60.8 °F 58.3 °F 91% 30.14 in 10.0 mi NE 8.1 mph - N/A   Unknown
11:55 PM 60.8 °F 58.3 °F 91% 30.14 in 10.0 mi NNE 10.4 mph 16.1 mph N/A   Unknown